Location: Ayer Observatory
(42.2600°N, 71.0700°W)
Time: 09:40:43
(UTC-04:00)

XW-2A - Pass Details

Date: 15 August 2020
Orbit: 428 x 443 km, 97.3° (Epoch: 21 September)

Event Time Altitude Azimuth Distance (km) Brightness Sun altitude
Exits shadow 22:05:29 11° 236° (SW) 1,460 ? -22.7°
Maximum altitude 22:07:06 15° 267° (W) 1,279 ? -22.9°
Drops below altitude 10° 22:09:00 10° 303° (WNW) 1,531 ? -23.2°
Sets 22:11:43 0° 328° (NNW) 2,405 ? -23.5°
